Weather History for CYUL - September, 2013

Change the Weather History Date:

Thursday, September 5, 2013

  Actual Average Record
Temperature  
Mean Temperature 55 °F -  
Max Temperature 62 °F 72 °F 91 °F (2008)
Min Temperature 48 °F 56 °F 42 °F (2000)
Degree Days  
Heating Degree Days 10    
Growing Degree Days 5 (Base 50)    
Moisture  
Dew Point 42 °F    
Average Humidity 60    
Maximum Humidity 88    
Minimum Humidity 25    
Precipitation  
Precipitation 0.00 in - - ()
Sea Level Pressure  
Sea Level Pressure 30.05 in    
Wind  
Wind Speed 6 mph ()    
Max Wind Speed 16 mph    
Max Gust Speed 24 mph    
Visibility 15.0 miles    
Events      
Averages and records for this station are not official NWS values.
T = Trace of Precipitation, MM = Missing Value Source: Averaged Metar Reports

Daily Weather History Graph

Daily Weather History Graph

Search for Another Location

Airport or City:

Trip Planner

Search our weather history database for the weather conditions in past years. The results will help you decide how hot, cold, wet, or windy it might be!

Date:

Astronomy

Sep. 05, 2013 Rise Set
Actual Time 6:21 AM EDT 7:24 PM EDT
Civil Twilight 5:51 AM EDT 7:54 PM EDT
Nautical Twilight 5:14 AM EDT 8:31 PM EDT
Astronomical Twilight 4:36 AM EDT 9:09 PM EDT
Moon 6:33 AM EDT (9/5) 7:10 PM EDT (9/5)
Length of Visible Light 14h 03m
Length of Day
13h 03m
New Moon, 0% of the Moon is Illuminated
Sep 5
New Moon
Sep 12
First Quarter
Sep 19
Full
Sep 26
Last Quarter
Oct 4
New

Hourly Weather History & Observations

Time (EDT) Temp. Dew Point Humidity Pressure Visibility Wind Dir Wind Speed Gust Speed Precip Events Conditions
12:00 AM 55.4 °F 50.0 °F 82% 29.94 in 15.0 mi NNW 5.8 mph - N/A   Scattered Clouds
1:00 AM 55.4 °F 48.2 °F 77% 29.94 in 15.0 mi NNW 4.6 mph - N/A   Partly Cloudy
2:00 AM 53 °F 48 °F 76% 29.95 in 15 mi Calm Calm - -   Scattered Clouds
2:00 AM 53.6 °F 48.2 °F 82% 29.95 in 15.0 mi Calm Calm - N/A   Scattered Clouds
3:00 AM 51.8 °F 48.2 °F 88% 29.95 in 15.0 mi Calm Calm - N/A   Mostly Cloudy
4:00 AM 53.6 °F 48.2 °F 82% 29.96 in 15.0 mi Variable 2.3 mph - N/A   Mostly Cloudy
5:00 AM 51.8 °F 48.2 °F 88% 29.99 in 15.0 mi Calm Calm - N/A   Mostly Cloudy
6:00 AM 51.8 °F 46.4 °F 82% 30.01 in 15.0 mi North 3.5 mph - N/A   Mostly Cloudy
7:00 AM 50.0 °F 46.4 °F 87% 30.03 in 15.0 mi North 2.3 mph - N/A   Partly Cloudy
8:00 AM 54 °F 46 °F 65% 30.05 in 15 mi NW 8.1 mph - -   Scattered Clouds
8:00 AM 53.6 °F 46.4 °F 77% 30.05 in 15.0 mi NW 8.1 mph - N/A   Partly Cloudy
9:00 AM 55.4 °F 46.4 °F 72% 30.06 in 15.0 mi North 6.9 mph - N/A   Partly Cloudy
10:00 AM 57.2 °F 42.8 °F 59% 30.07 in 30.0 mi North 6.9 mph - N/A   Partly Cloudy
11:00 AM 59.0 °F 39.2 °F 48% 30.07 in 30.0 mi NW 9.2 mph - N/A   Mostly Cloudy
12:00 PM 60.8 °F 35.6 °F 39% 30.06 in 30.0 mi WNW 12.7 mph 19.6 mph N/A   Scattered Clouds
1:00 PM 60.8 °F 37.4 °F 42% 30.07 in 30.0 mi West 10.4 mph 20.7 mph N/A   Scattered Clouds
2:00 PM 62 °F 35 °F 25% 30.08 in 28 mi West 15.0 mph - -   Mostly Cloudy
2:00 PM 60.8 °F 35.6 °F 39% 30.08 in 30.0 mi West 16.1 mph 24.2 mph N/A   Mostly Cloudy
2:14 PM 62.6 °F 37.4 °F 39% 30.07 in 30.0 mi West 12.7 mph 20.7 mph N/A   Mostly Cloudy
3:00 PM 62.6 °F 35.6 °F 37% 30.07 in 30.0 mi NW 12.7 mph 23.0 mph N/A   Mostly Cloudy
4:00 PM 62.6 °F 35.6 °F 37% 30.08 in 30.0 mi WNW 12.7 mph 21.9 mph N/A   Mostly Cloudy
5:00 PM 60.8 °F 33.8 °F 36% 30.09 in 30.0 mi West 15.0 mph 23.0 mph N/A   Mostly Cloudy
6:00 PM 59.0 °F 35.6 °F 42% 30.10 in 30.0 mi West 13.8 mph - N/A   Scattered Clouds
7:00 PM 59.0 °F 35.6 °F 42% 30.12 in 30.0 mi WNW 9.2 mph - N/A   Partly Cloudy
8:00 PM 55.4 °F 37.4 °F 51% 30.13 in 15.0 mi WNW 5.8 mph - N/A   Partly Cloudy
9:00 PM 53.6 °F 39.2 °F 58% 30.15 in 15.0 mi West 5.8 mph - N/A   Clear
10:00 PM 53.6 °F 39.2 °F 58% 30.16 in 15.0 mi West 4.6 mph - N/A   Clear
11:00 PM 51.8 °F 41.0 °F 67% 30.17 in 15.0 mi WNW 4.6 mph - N/A   Clear